< < Back
Terminal Aerodrome Forecast


Current Version              Previous Versions:   1  2  3  4  5  6  7  8  9  

Terminal Aerodrome Forecast

285
FTUS44 KMOB 300500
TAFPNS
TAF
KPNS 300531Z 3006/3106 27007KT P6SM FEW120 BKN250
     FM300800 32007KT P6SM FEW035 BKN250
     FM301200 35012KT P6SM SCT030 BKN120
     FM301500 36015G20KT P6SM FEW250=

Latest METAR

436
SAUS70 KWBC 310400 RRO
MTRPNS
METAR KPNS 310353Z 35007KT 10SM CLR 09/M01 A3034 RMK AO2 SLP278
T00941006


USA.gov is the U.S. government's official web portal to all federal, state and local government web resources and services.